Location: General Nathan Twining Observatory
(34.5931°N, 106.8201°W)
Time: 08:56:54
(UTC-06:00)

OAO 3 Copernicus - Pass Details

Date: 20 September 2017
Orbit: 695 x 705 km, 35.0° (Epoch: 16 October)

Event Time Altitude Azimuth Distance (km) Brightness Sun altitude
Rises 20:53:35 0° 257° (WSW) 3,065 8.6 -22.6°
Reaches altitude 10° 20:55:59 10° 257° (WSW) 2,147 7.6 -23.0°
Maximum altitude 21:01:02 83° 170° (S) 702 4.1 -24.0°
Enters shadow 21:01:23 76° 108° (ESE) 716 4.1 -24.1°
